This is the latest recevied weather packets stored in our database for station/object KW4UJ. If no packets are shown the sender has not sent any weather packets the latest 10 day(s).
| Time | Temp. | Humidity | Pressure | Rain* | Wind** | Luminosity | Snow |
|---|---|---|---|---|---|---|---|
| 1777907439 | 20° C | 37% | 1013.9 hPa | 0 mm | - | 307 W/m² | - |
| 1777907137 | 20.56° C | 35% | 1013.7 hPa | 0 mm | - | 413 W/m² | - |
| 1777906834 | 19.44° C | 36% | 1013.8 hPa | 0 mm | - | 548 W/m² | - |
| 1777906532 | 20° C | 36% | 1013.9 hPa | 0 mm | - | 541 W/m² | - |
| 1777906227 | 20° C | 38% | 1013.6 hPa | 0 mm | - | 530 W/m² | - |
| 1777905923 | 20° C | 36% | 1013.9 hPa | 0 mm | - | 524 W/m² | - |
| 1777905620 | 20° C | 36% | 1013.9 hPa | 0 mm | - | 511 W/m² | - |
| 1777905317 | 20° C | 38% | 1014.1 hPa | 0 mm | - | 500 W/m² | - |
| 1777905015 | 20° C | 36% | 1014 hPa | 0 mm | - | 486 W/m² | - |
| 1777904712 | 20° C | 39% | 1013.8 hPa | 0 mm | - | 481 W/m² | - |
| 1777904409 | 19.44° C | 39% | 1013.8 hPa | 0 mm | - | 468 W/m² | - |
| 1777904106 | 19.44° C | 39% | 1014 hPa | 0 mm | - | 457 W/m² | - |
| 1777903802 | 18.89° C | 39% | 1014.1 hPa | 0 mm | - | 396 W/m² | - |
| 1777903499 | 18.89° C | 42% | 1014 hPa | 0 mm | - | 258 W/m² | - |
| 1777903195 | 18.89° C | 42% | 1014.1 hPa | 0 mm | - | 425 W/m² | - |
| 1777902892 | 17.78° C | 43% | 1014 hPa | 0 mm | - | 412 W/m² | - |
| 1777902589 | 17.22° C | 43% | 1014.1 hPa | 0 mm | - | 400 W/m² | - |
| 1777902286 | 17.22° C | 43% | 1014.1 hPa | 0 mm | - | 391 W/m² | - |
| 1777901984 | 17.22° C | 44% | 1014.2 hPa | 0 mm | - | 375 W/m² | - |
| 1777901681 | 17.22° C | 45% | 1014 hPa | 0 mm | - | 364 W/m² | - |
| 1777901378 | 16.67° C | 45% | 1014.2 hPa | 0 mm | - | 353 W/m² | - |
| 1777901076 | 16.67° C | 46% | 1014.3 hPa | 0 mm | - | 341 W/m² | - |
| 1777900773 | 16.67° C | 45% | 1014.4 hPa | 0 mm | - | 315 W/m² | - |
| 1777900470 | 15.56° C | 47% | 1014.3 hPa | 0 mm | - | 314 W/m² | - |
| 1777900167 | 15° C | 47% | 1014.4 hPa | 0 mm | - | 277 W/m² | - |
* Rain latest hour (hover to see other rain measurements)
** Current wind speed in m/s (hover to see current wind gust speed)